Time,TemperatureF,DewpointF,PressureIn,WindDirection,WindDirectionDegrees,WindSpeedMPH,WindSpeedGustMPH,Humidity,HourlyPrecipIn,Conditions,Clouds,dailyrainin,SoftwareType,DateUTC
2013-08-08 00:08:00,71.2,70.0,30.02,SE,136,0.0,0.0,97,0.00,,,0.00,weatherlink.com 1.10,2013-08-08 04:08:00,
2013-08-08 00:23:00,71.0,70.0,30.02,SE,136,0.0,1.0,97,0.00,,,0.00,weatherlink.com 1.10,2013-08-08 04:23:00,
2013-08-08 00:38:00,70.9,70.0,30.02,SE,136,0.0,0.0,97,0.00,,,0.00,weatherlink.com 1.10,2013-08-08 04:38:00,
2013-08-08 00:53:00,70.9,70.0,30.02,SE,136,0.0,1.0,98,0.00,,,0.00,weatherlink.com 1.10,2013-08-08 04:53:00,
2013-08-08 01:08:00,70.7,70.0,30.02,SE,136,0.0,1.0,97,0.00,,,0.00,weatherlink.com 1.10,2013-08-08 05:08:00,
2013-08-08 01:23:00,70.6,70.0,30.01,SE,136,0.0,0.0,97,0.00,,,0.00,weatherlink.com 1.10,2013-08-08 05:23:00,
2013-08-08 01:38:00,70.6,70.0,30.01,SE,136,0.0,0.0,98,0.00,,,0.00,weatherlink.com 1.10,2013-08-08 05:38:00,
2013-08-08 01:53:00,70.3,69.0,30.01,SE,136,0.0,0.0,97,0.00,,,0.00,weatherlink.com 1.10,2013-08-08 05:53:00,
2013-08-08 02:08:00,70.2,70.0,30.01,SE,136,0.0,0.0,98,0.00,,,0.00,weatherlink.com 1.10,2013-08-08 06:08:00,
2013-08-08 02:23:00,70.2,70.0,30.01,SE,136,0.0,1.0,98,0.00,,,0.00,weatherlink.com 1.10,2013-08-08 06:23:00,
2013-08-08 02:38:00,70.3,70.0,30.01,SE,136,0.0,1.0,98,0.00,,,0.00,weatherlink.com 1.10,2013-08-08 06:38:00,
2013-08-08 02:53:00,70.3,70.0,30.00,SE,136,0.0,1.0,98,0.00,,,0.00,weatherlink.com 1.10,2013-08-08 06:53:00,
2013-08-08 03:08:00,70.3,70.0,30.00,SE,136,0.0,0.0,98,0.00,,,0.00,weatherlink.com 1.10,2013-08-08 07:08:00,
2013-08-08 03:23:00,70.4,70.0,30.00,SE,136,0.0,0.0,98,0.00,,,0.00,weatherlink.com 1.10,2013-08-08 07:23:00,
2013-08-08 03:39:00,70.4,70.0,30.00,SE,136,0.0,0.0,98,0.00,,,0.00,weatherlink.com 1.10,2013-08-08 07:39:00,
2013-08-08 03:53:00,70.3,70.0,30.00,SE,136,0.0,0.0,98,0.00,,,0.00,weatherlink.com 1.10,2013-08-08 07:53:00,
2013-08-08 04:08:00,70.3,70.0,30.00,SE,136,0.0,0.0,98,0.00,,,0.00,weatherlink.com 1.10,2013-08-08 08:08:00,
2013-08-08 04:23:00,70.3,70.0,30.00,SE,136,0.0,0.0,98,0.00,,,0.00,weatherlink.com 1.10,2013-08-08 08:23:00,
2013-08-08 04:38:00,70.3,70.0,30.00,SE,136,0.0,0.0,98,0.00,,,0.00,weatherlink.com 1.10,2013-08-08 08:38:00,
2013-08-08 04:53:00,70.3,70.0,30.00,SE,136,0.0,1.0,98,0.00,,,0.00,weatherlink.com 1.10,2013-08-08 08:53:00,
2013-08-08 05:08:00,70.2,70.0,30.00,SE,136,0.0,0.0,98,0.00,,,0.00,weatherlink.com 1.10,2013-08-08 09:08:00,
2013-08-08 05:23:00,70.1,70.0,30.00,East,88,0.0,0.0,98,0.00,,,0.00,weatherlink.com 1.10,2013-08-08 09:23:00,
2013-08-08 05:38:00,70.2,70.0,30.00,East,88,0.0,0.0,98,0.00,,,0.00,weatherlink.com 1.10,2013-08-08 09:38:00,
2013-08-08 05:53:00,70.2,70.0,30.00,East,87,0.0,0.0,98,0.00,,,0.00,weatherlink.com 1.10,2013-08-08 09:53:00,
2013-08-08 06:08:00,70.2,70.0,30.00,East,88,0.0,0.0,98,0.00,,,0.00,weatherlink.com 1.10,2013-08-08 10:08:00,
2013-08-08 06:23:00,70.2,70.0,30.00,East,87,0.0,0.0,98,0.00,,,0.00,weatherlink.com 1.10,2013-08-08 10:23:00,
2013-08-08 06:38:00,70.3,70.0,30.01,East,88,0.0,1.0,98,0.00,,,0.00,weatherlink.com 1.10,2013-08-08 10:38:00,
2013-08-08 06:53:00,70.3,70.0,30.01,East,87,0.0,0.0,98,0.00,,,0.00,weatherlink.com 1.10,2013-08-08 10:53:00,
2013-08-08 07:08:00,70.4,70.0,30.01,East,87,0.0,0.0,98,0.00,,,0.00,weatherlink.com 1.10,2013-08-08 11:08:00,
2013-08-08 07:23:00,70.4,70.0,30.01,East,88,0.0,0.0,98,0.00,,,0.00,weatherlink.com 1.10,2013-08-08 11:23:00,
2013-08-08 07:38:00,70.5,70.0,30.02,East,87,0.0,0.0,98,0.00,,,0.00,weatherlink.com 1.10,2013-08-08 11:38:00,
2013-08-08 08:08:00,70.9,70.0,30.03,East,87,0.0,0.0,98,0.00,,,0.00,weatherlink.com 1.10,2013-08-08 12:08:00,
2013-08-08 08:23:00,71.1,71.0,30.03,East,87,0.0,1.0,98,0.00,,,0.00,weatherlink.com 1.10,2013-08-08 12:23:00,
2013-08-08 08:38:00,71.4,71.0,30.04,East,87,0.0,0.0,98,0.00,,,0.00,weatherlink.com 1.10,2013-08-08 12:38:00,
2013-08-08 08:53:00,72.1,72.0,30.04,East,87,0.0,0.0,98,0.00,,,0.00,weatherlink.com 1.10,2013-08-08 12:53:00,
2013-08-08 09:08:00,72.4,72.0,30.04,East,87,0.0,1.0,98,0.00,,,0.00,weatherlink.com 1.10,2013-08-08 13:08:00,
2013-08-08 09:23:00,72.8,72.0,30.03,East,88,0.0,0.0,97,0.00,,,0.00,weatherlink.com 1.10,2013-08-08 13:23:00,
2013-08-08 09:38:00,73.2,72.0,30.03,ESE,113,0.0,2.0,96,0.00,,,0.00,weatherlink.com 1.10,2013-08-08 13:38:00,
2013-08-08 09:53:00,74.0,72.0,30.03,NE,43,0.0,1.0,94,0.00,,,0.00,weatherlink.com 1.10,2013-08-08 13:53:00,
2013-08-08 10:08:00,74.9,73.0,30.03,NE,43,0.0,1.0,93,0.00,,,0.00,weatherlink.com 1.10,2013-08-08 14:08:00,
2013-08-08 10:23:00,75.3,73.0,30.03,NE,43,0.0,0.0,91,0.00,,,0.00,weatherlink.com 1.10,2013-08-08 14:23:00,
2013-08-08 10:38:00,75.3,73.0,30.04,NE,43,0.0,0.0,91,0.00,,,0.00,weatherlink.com 1.10,2013-08-08 14:38:00,
2013-08-08 10:53:00,76.9,74.0,30.04,NE,37,1.0,2.0,89,0.00,,,0.00,weatherlink.com 1.10,2013-08-08 14:53:00,
2013-08-08 11:08:00,77.4,74.0,30.04,NE,44,1.0,2.0,89,0.00,,,0.00,weatherlink.com 1.10,2013-08-08 15:08:00,
2013-08-08 11:23:00,78.0,73.0,30.04,SE,144,0.0,1.0,85,0.00,,,0.00,weatherlink.com 1.10,2013-08-08 15:23:00,
2013-08-08 11:39:00,78.8,74.0,30.04,SE,146,0.0,1.0,84,0.00,,,0.00,weatherlink.com 1.10,2013-08-08 15:39:00,
2013-08-08 11:54:00,79.4,75.0,30.04,ENE,74,0.0,2.0,85,0.00,,,0.00,weatherlink.com 1.10,2013-08-08 15:54:00,
2013-08-08 12:09:00,79.0,74.0,30.05,SSE,166,0.0,1.0,84,0.00,,,0.00,weatherlink.com 1.10,2013-08-08 16:09:00,
2013-08-08 12:24:00,78.4,74.0,30.05,SSE,166,0.0,1.0,87,0.00,,,0.00,weatherlink.com 1.10,2013-08-08 16:24:00,
2013-08-08 12:39:00,79.2,75.0,30.05,ENE,57,0.0,2.0,86,0.00,,,0.00,weatherlink.com 1.10,2013-08-08 16:39:00,
2013-08-08 12:54:00,78.8,74.0,30.05,SSE,159,0.0,3.0,85,0.00,,,0.00,weatherlink.com 1.10,2013-08-08 16:54:00,
2013-08-08 13:09:00,79.3,75.0,30.05,East,86,1.0,2.0,85,0.00,,,0.00,weatherlink.com 1.10,2013-08-08 17:09:00,
2013-08-08 13:24:00,79.1,74.0,30.05,ESE,120,0.0,2.0,85,0.00,,,0.00,weatherlink.com 1.10,2013-08-08 17:24:00,
2013-08-08 13:39:00,80.9,76.0,30.04,NE,44,1.0,5.0,84,0.00,,,0.00,weatherlink.com 1.10,2013-08-08 17:39:00,
2013-08-08 13:54:00,80.8,75.0,30.04,WNW,288,0.0,4.0,82,0.00,,,0.00,weatherlink.com 1.10,2013-08-08 17:54:00,
2013-08-08 14:09:00,80.0,74.0,30.03,East,91,1.0,6.0,82,0.00,,,0.00,weatherlink.com 1.10,2013-08-08 18:09:00,
2013-08-08 14:24:00,80.9,76.0,30.03,NNE,26,1.0,4.0,85,0.00,,,0.00,weatherlink.com 1.10,2013-08-08 18:24:00,
2013-08-08 14:39:00,83.2,76.0,30.02,NE,39,2.0,2.0,78,0.00,,,0.00,weatherlink.com 1.10,2013-08-08 18:39:00,
2013-08-08 14:54:00,82.9,77.0,30.02,SSE,160,0.0,4.0,81,0.00,,,0.00,weatherlink.com 1.10,2013-08-08 18:54:00,
2013-08-08 15:09:00,82.7,75.0,30.01,NE,55,3.0,3.0,77,0.00,,,0.00,weatherlink.com 1.10,2013-08-08 19:09:00,
2013-08-08 15:24:00,82.4,76.0,30.01,ESE,109,0.0,3.0,82,0.00,,,0.00,weatherlink.com 1.10,2013-08-08 19:24:00,
2013-08-08 15:39:00,83.6,76.0,30.01,SW,226,0.0,4.0,78,0.00,,,0.00,weatherlink.com 1.10,2013-08-08 19:39:00,
2013-08-08 15:54:00,84.1,75.0,30.01,SSE,167,0.0,3.0,74,0.00,,,0.00,weatherlink.com 1.10,2013-08-08 19:54:00,
2013-08-08 16:09:00,83.0,76.0,30.00,ENE,74,3.0,4.0,79,0.00,,,0.00,weatherlink.com 1.10,2013-08-08 20:09:00,
2013-08-08 16:24:00,82.6,76.0,30.00,SW,233,1.0,2.0,79,0.00,,,0.00,weatherlink.com 1.10,2013-08-08 20:24:00,
2013-08-08 16:39:00,82.8,76.0,29.99,SW,214,0.0,2.0,80,0.00,,,0.00,weatherlink.com 1.10,2013-08-08 20:39:00,
2013-08-08 16:54:00,82.1,75.0,29.99,SW,221,1.0,2.0,80,0.00,,,0.00,weatherlink.com 1.10,2013-08-08 20:54:00,
2013-08-08 17:09:00,81.4,75.0,29.98,SE,143,0.0,2.0,82,0.00,,,0.00,weatherlink.com 1.10,2013-08-08 21:09:00,
2013-08-08 17:24:00,80.9,75.0,29.98,WSW,255,1.0,2.0,81,0.00,,,0.00,weatherlink.com 1.10,2013-08-08 21:24:00,
2013-08-08 17:39:00,80.7,76.0,29.98,East,100,0.0,3.0,84,0.00,,,0.00,weatherlink.com 1.10,2013-08-08 21:39:00,
2013-08-08 18:09:00,80.5,75.0,29.99,ESE,116,0.0,3.0,84,0.00,,,0.00,weatherlink.com 1.10,2013-08-08 22:09:00,
2013-08-08 18:39:00,80.0,75.0,29.99,SSE,159,0.0,0.0,85,0.00,,,0.00,weatherlink.com 1.10,2013-08-08 22:39:00,
2013-08-08 18:54:00,79.3,75.0,30.00,SSE,153,0.0,0.0,86,0.00,,,0.00,weatherlink.com 1.10,2013-08-08 22:54:00,
2013-08-08 19:09:00,78.6,75.0,29.99,SSE,152,0.0,0.0,88,0.00,,,0.00,weatherlink.com 1.10,2013-08-08 23:09:00,
2013-08-08 19:39:00,77.9,75.0,30.00,SSE,153,0.0,0.0,89,0.00,,,0.00,weatherlink.com 1.10,2013-08-08 23:39:00,
2013-08-08 19:54:00,77.6,75.0,30.00,SSE,152,0.0,0.0,90,0.00,,,0.00,weatherlink.com 1.10,2013-08-08 23:54:00,
2013-08-08 20:09:00,77.2,74.0,30.00,SSE,153,0.0,0.0,90,0.00,,,0.00,weatherlink.com 1.10,2013-08-09 00:09:00,
2013-08-08 20:24:00,76.5,74.0,30.00,SSE,153,0.0,0.0,92,0.00,,,0.00,weatherlink.com 1.10,2013-08-09 00:24:00,
2013-08-08 20:39:00,76.2,74.0,30.00,SSE,152,0.0,0.0,93,0.00,,,0.00,weatherlink.com 1.10,2013-08-09 00:39:00,
2013-08-08 20:54:00,75.8,74.0,30.00,SSE,153,0.0,0.0,94,0.00,,,0.00,weatherlink.com 1.10,2013-08-09 00:54:00,
2013-08-08 21:09:00,75.3,74.0,30.00,SSE,152,0.0,0.0,94,0.00,,,0.00,weatherlink.com 1.10,2013-08-09 01:09:00,
2013-08-08 21:24:00,74.9,73.0,30.01,SSE,153,0.0,0.0,95,0.00,,,0.00,weatherlink.com 1.10,2013-08-09 01:24:00,
2013-08-08 21:39:00,74.8,73.0,30.01,SSE,152,0.0,0.0,95,0.00,,,0.00,weatherlink.com 1.10,2013-08-09 01:39:00,
2013-08-08 21:54:00,74.6,73.0,30.02,SSE,153,0.0,0.0,96,0.00,,,0.00,weatherlink.com 1.10,2013-08-09 01:54:00,
2013-08-08 22:09:00,74.4,73.0,30.02,SSE,152,0.0,0.0,96,0.00,,,0.00,weatherlink.com 1.10,2013-08-09 02:09:00,
2013-08-08 22:39:00,74.0,73.0,30.01,SSE,152,0.0,0.0,96,0.00,,,0.00,weatherlink.com 1.10,2013-08-09 02:39:00,
2013-08-08 22:54:00,73.8,73.0,30.00,SSE,152,0.0,0.0,96,0.00,,,0.00,weatherlink.com 1.10,2013-08-09 02:54:00,
2013-08-08 23:09:00,73.6,73.0,29.99,SSE,153,0.0,0.0,97,0.00,,,0.00,weatherlink.com 1.10,2013-08-09 03:09:00,
2013-08-08 23:24:00,73.5,73.0,29.99,SSE,152,0.0,0.0,97,0.00,,,0.00,weatherlink.com 1.10,2013-08-09 03:24:00,
2013-08-08 23:39:00,73.3,72.0,29.99,SSE,152,0.0,0.0,97,0.00,,,0.00,weatherlink.com 1.10,2013-08-09 03:39:00,
2013-08-08 23:54:00,73.2,72.0,29.99,SSE,153,0.0,0.0,97,0.00,,,0.00,weatherlink.com 1.10,2013-08-09 03:54:00,